Montreal Mirabel, Quebec

8:42 AM EDT on September 27, 2016 (GMT -0400)
Montreal International (Mirabel)

Weather History for CYMX - January, 2012

Change the Weather History Date:

Friday, January 27, 2012

  Actual Average Record
Temperature  
Mean Temperature 24 °F -  
Max Temperature 32 °F 17 °F 59 °F (2009)
Min Temperature 17 °F 2 °F -20 °F (1997)
Degree Days  
Heating Degree Days 40    
Moisture  
Dew Point 25 °F    
Average Humidity 93    
Maximum Humidity 100    
Minimum Humidity 86    
Precipitation  
Precipitation 0.00 in - - ()
Sea Level Pressure  
Sea Level Pressure 29.55 in    
Wind  
Wind Speed 8 mph ()    
Max Wind Speed 14 mph    
Max Gust Speed 23 mph    
Visibility 4.1 miles    
Events Rain , Snow    
Averages and records for this station are not official NWS values.
T = Trace of Precipitation, MM = Missing Value Source: Averaged Metar Reports

Daily Weather History Graph

Daily Weather History Graph

Search for Another Location

Airport or City:

Trip Planner

Search our weather history database for the weather conditions in past years. The results will help you decide how hot, cold, wet, or windy it might be!

Date:

Astronomy

Jan. 27, 2012 Rise Set
Actual Time 7:23 AM EST 4:54 PM EST
Civil Twilight 6:51 AM EST 5:26 PM EST
Nautical Twilight 6:15 AM EST 6:02 PM EST
Astronomical Twilight 5:40 AM EST 6:37 PM EST
Moon 9:00 AM EST 10:01 PM EST
Length of Visible Light 10h 35m
Length of Day
9h 30m
Waxing Crescent, 19% of the Moon is Illuminated
Jan 27
Waxing Crescent
Jan 30
First Quarter
Feb 7
Full
Feb 14
Last Quarter
Feb 21
New

Hourly Weather History & Observations

Time (EST) Temp. Windchill Dew Point Humidity Pressure Visibility Wind Dir Wind Speed Gust Speed Precip Events Conditions
12:00 AM 17.6 °F 7.3 °F 15.8 °F 93% 29.90 in 3.0 mi ENE 8.1 mph - N/A Snow Light Snow
12:19 AM 17.6 °F 6.4 °F 15.8 °F 93% - 1.5 mi ENE 9.2 mph 19.6 mph N/A Snow Light Snow
1:00 AM 17.6 °F 6.4 °F 15.8 °F 93% 29.86 in 2.0 mi NE 9.2 mph 18.4 mph N/A Snow Light Snow
2:00 AM 19.4 °F 7.2 °F 15.8 °F 86% 29.83 in 1.0 mi NE 11.5 mph 18.4 mph N/A Snow Light Snow
3:00 AM 19.4 °F 9.5 °F 15.8 °F 86% 29.79 in 2.0 mi NE 8.1 mph 20.7 mph N/A Snow Light Snow
3:27 AM 19.4 °F 7.9 °F 17.6 °F 93% - 6.0 mi NE 10.4 mph 18.4 mph N/A Snow Light Snow
4:00 AM 19.4 °F 7.2 °F 17.6 °F 93% 29.73 in 10.0 mi NE 11.5 mph 18.4 mph N/A Snow Light Snow
5:00 AM 21.2 °F 9.5 °F 17.6 °F 86% 29.68 in 10.0 mi NE 11.5 mph 19.6 mph N/A Snow Light Snow
6:00 AM 23.0 °F 13.1 °F 21.2 °F 93% 29.63 in 5.0 mi NE 9.2 mph 19.6 mph N/A Rain , Snow Light Snow
7:00 AM 24.8 °F 14.6 °F 24.8 °F 100% 29.59 in 5.0 mi NE 10.4 mph 18.4 mph N/A Rain Light Freezing Rain
8:00 AM 26.6 °F 15.2 °F 26.6 °F 100% 29.52 in 5.0 mi ENE 13.8 mph 20.7 mph N/A Rain Light Freezing Rain
9:00 AM 28.4 °F 19.7 °F 26.6 °F 93% 29.50 in 4.0 mi NE 9.2 mph 18.4 mph N/A Rain Light Freezing Rain
10:00 AM 28.4 °F 18.0 °F 26.6 °F 93% 29.45 in 6.0 mi ENE 12.7 mph 20.7 mph N/A Rain Light Freezing Rain
11:00 AM 26.6 °F 15.7 °F 26.6 °F 100% 29.42 in 4.0 mi ENE 12.7 mph 23.0 mph N/A Rain Light Freezing Rain
12:00 PM 28.4 °F 19.1 °F 26.6 °F 93% 29.37 in 4.0 mi NE 10.4 mph 18.4 mph N/A Rain Light Freezing Rain
1:00 PM 28.4 °F 18.5 °F 28.4 °F 100% 29.34 in 3.0 mi NE 11.5 mph 20.7 mph N/A Rain Light Freezing Rain
1:50 PM 30.2 °F 22.6 °F 28.4 °F 93% - 3.0 mi NE 8.1 mph - N/A   Light Freezing Drizzle
2:00 PM 30.2 °F 24.3 °F 28.4 °F 93% 29.31 in 3.0 mi NNE 5.8 mph - N/A   Light Freezing Drizzle
3:00 PM 30.2 °F 20.8 °F 28.4 °F 93% 29.31 in 2.5 mi NNE 11.5 mph 18.4 mph N/A   Light Freezing Drizzle
3:40 PM 30.2 °F 23.4 °F 30.2 °F 100% - 2.5 mi NNE 6.9 mph - N/A Snow Light Snow Showers
4:00 PM 30.2 °F 22.6 °F 30.2 °F 100% 29.32 in 0.5 mi North 8.1 mph - N/A Snow Snow Showers
4:49 PM 32.0 °F 27.5 °F 30.2 °F 93% - 0.6 mi West 4.6 mph - N/A Snow Light Snow Showers
5:00 PM 32.0 °F 26.4 °F 30.2 °F 93% 29.38 in 0.6 mi West 5.8 mph - N/A Snow Light Snow Showers
5:22 PM 32.0 °F 26.4 °F 32.0 °F 100% - 1.5 mi NW 5.8 mph - N/A Snow Light Snow Showers
6:00 PM 32.0 °F 26.4 °F 30.2 °F 93% 29.42 in 7.0 mi West 5.8 mph - N/A Snow Light Snow Showers
7:00 PM 32.0 °F 25.6 °F 28.4 °F 87% 29.48 in 15.0 mi West 6.9 mph 17.3 mph N/A   Overcast
8:00 PM 30.2 °F 21.3 °F 26.6 °F 86% 29.55 in 25.0 mi West 10.4 mph 21.9 mph N/A   Mostly Cloudy
9:00 PM 28.4 °F 20.4 °F 24.8 °F 86% 29.59 in 25.0 mi West 8.1 mph 18.4 mph N/A   Mostly Cloudy
10:00 PM 28.4 °F 19.7 °F 24.8 °F 86% 29.63 in 25.0 mi West 9.2 mph - N/A   Mostly Cloudy
11:00 PM 28.4 °F 20.4 °F 24.8 °F 86% 29.68 in 25.0 mi WSW 8.1 mph - N/A   Mostly Cloudy